Salem, IL

9:16 PM CDT on May 22, 2018 (GMT -0500)
Salem-Leckrone

Weather History for KSLO - April, 2013

Change the Weather History Date:

Sunday, April 28, 2013

  Actual Average Record
Temperature  
Mean Temperature 54 °F -  
Max Temperature 60 °F 71 °F 87 °F (1970)
Min Temperature 50 °F 48 °F 30 °F (1992)
Degree Days  
Heating Degree Days 10    
Growing Degree Days 4 (Base 50)    
Moisture  
Dew Point 55 °F    
Average Humidity 96    
Maximum Humidity 100    
Minimum Humidity 84    
Precipitation  
Precipitation 0.00 in - - ()
Sea Level Pressure  
Sea Level Pressure 29.91 in    
Wind  
Wind Speed 5 mph (West)    
Max Wind Speed 13 mph    
Max Gust Speed 18 mph    
Visibility 5 miles    
Events Fog , Rain    
Averages and records for this station are not official NWS values.
T = Trace of Precipitation, MM = Missing Value Source: NWS Daily Summary

Daily Weather History Graph

Daily Weather History Graph

Search for Another Location

Airport or City:

Astronomy

Apr. 28, 2013 Rise Set
Actual Time 6:01 AM CDT 7:45 PM CDT
Civil Twilight 5:33 AM CDT 8:13 PM CDT
Nautical Twilight 4:59 AM CDT 8:48 PM CDT
Astronomical Twilight 4:22 AM CDT 9:25 PM CDT
Moon 11:14 PM CDT (4/28) 8:19 AM CDT (4/28)
Length of Visible Light 14h 40m
Length of Day
13h 43m
Waning Gibbous, 88% of the Moon is Illuminated
Apr 28
Waning Gibbous
May 2
Last Quarter
May 9
New
May 17
First Quarter
May 24
Full

Hourly Weather History & Observations

Time (CDT) Temp. Dew Point Humidity Pressure Visibility Wind Dir Wind Speed Gust Speed Precip Events Conditions
12:15 AM 56.5 °F 56.5 °F 100% 29.91 in 2.5 mi Calm Calm - N/A   Drizzle
12:35 AM 56.3 °F 56.3 °F 100% 29.90 in 2.5 mi Calm Calm - N/A   Overcast
12:55 AM 56.7 °F 56.7 °F 100% 29.90 in 2.5 mi Calm Calm - N/A   Overcast
1:15 AM 56.5 °F 56.5 °F 100% 29.89 in 1.8 mi Calm Calm - N/A Rain Heavy Rain
1:35 AM 56.3 °F 56.3 °F 100% 29.89 in 1.0 mi Calm Calm - N/A   Heavy Drizzle
1:55 AM 56.3 °F 56.3 °F 100% 29.88 in 1.0 mi West 3.5 mph - N/A Rain Rain
2:15 AM 55.9 °F 55.9 °F 100% 29.88 in 2.0 mi West 3.5 mph - N/A   Heavy Drizzle
2:35 AM 55.9 °F 55.9 °F 100% 29.87 in 3.0 mi West 3.5 mph - N/A   Drizzle
2:55 AM 55.8 °F 55.8 °F 100% 29.87 in 2.5 mi Calm Calm - N/A   Light Drizzle
3:15 AM 55.8 °F 55.8 °F 100% 29.86 in 4.0 mi Calm Calm - N/A   Overcast
3:35 AM 55.6 °F 55.6 °F 100% 29.86 in 3.0 mi West 3.5 mph - N/A   Overcast
3:55 AM 55.4 °F 55.4 °F 100% 29.86 in 0.8 mi West 3.5 mph - N/A   Overcast
4:15 AM 55.4 °F 55.4 °F 100% 29.87 in 0.5 mi WSW 3.5 mph - N/A Fog Fog
4:35 AM 55.4 °F 55.4 °F 100% 29.87 in 0.5 mi West 3.5 mph - N/A Fog Fog
4:55 AM 55.4 °F 55.4 °F 100% 29.87 in 0.2 mi West 5.8 mph - N/A Fog Fog
5:15 AM 55.0 °F 55.0 °F 100% 29.87 in 0.5 mi West 6.9 mph - N/A Fog Fog
5:35 AM 54.9 °F 54.9 °F 100% 29.88 in 0.5 mi West 8.1 mph - N/A Fog Fog
5:55 AM 54.7 °F 54.7 °F 100% 29.88 in 0.5 mi WSW 9.2 mph - N/A Fog Fog
6:15 AM 54.5 °F 54.5 °F 100% 29.89 in 0.5 mi West 6.9 mph - N/A Fog Fog
6:35 AM 54.5 °F 54.5 °F 100% 29.89 in 0.5 mi WSW 9.2 mph - N/A Fog Fog
6:55 AM 54.5 °F 54.5 °F 100% 29.89 in 0.2 mi WSW 8.1 mph - N/A Fog Fog
7:15 AM 54.5 °F 54.5 °F 100% 29.90 in 0.8 mi West 10.4 mph - N/A Rain Rain
7:35 AM 54.5 °F 54.5 °F 100% 29.90 in 1.2 mi West 9.2 mph - N/A   Drizzle
7:55 AM 54.5 °F 54.5 °F 100% 29.90 in 1.5 mi West 6.9 mph - N/A   Drizzle
8:15 AM 54.7 °F 54.7 °F 100% 29.90 in 1.5 mi West 8.1 mph - N/A   Drizzle
8:35 AM 54.7 °F 54.7 °F 100% 29.90 in 1.8 mi West 10.4 mph - N/A   Light Drizzle
8:55 AM 54.7 °F 54.7 °F 100% 29.90 in 1.8 mi West 10.4 mph - N/A   Light Drizzle
9:15 AM 54.9 °F 54.9 °F 100% 29.91 in 1.5 mi West 10.4 mph - N/A   Drizzle
9:35 AM 55.0 °F 55.0 °F 100% 29.91 in 4.0 mi West 9.2 mph - N/A   Light Drizzle
9:55 AM 55.4 °F 55.4 °F 100% 29.91 in 10.0 mi West 9.2 mph - N/A   Overcast
10:15 AM 55.6 °F 55.6 °F 100% 29.91 in 10.0 mi West 9.2 mph - N/A   Overcast
10:35 AM 55.9 °F 55.9 °F 100% 29.92 in 5.0 mi West 11.5 mph - N/A   Overcast
10:55 AM 55.8 °F 55.8 °F 100% 29.92 in 10.0 mi West 12.7 mph 18.4 mph N/A   Overcast
11:15 AM 55.9 °F 55.9 °F 100% 29.93 in 10.0 mi WNW 10.4 mph 17.3 mph N/A   Overcast
11:35 AM 55.9 °F 55.9 °F 100% 29.93 in 7.0 mi West 9.2 mph 16.1 mph N/A   Overcast
11:55 AM 55.8 °F 55.8 °F 100% 29.93 in 5.0 mi West 11.5 mph - N/A   Overcast
12:15 PM 55.6 °F 55.6 °F 100% 29.93 in 3.0 mi West 8.1 mph - N/A   Overcast
12:35 PM 55.8 °F 55.8 °F 100% 29.93 in 3.0 mi West 9.2 mph - N/A   Overcast
12:55 PM 56.1 °F 56.1 °F 100% 29.93 in 4.0 mi West 9.2 mph - N/A   Overcast
1:15 PM 56.3 °F 56.3 °F 100% 29.93 in 5.0 mi West 10.4 mph - N/A   Overcast
1:35 PM 56.3 °F 56.3 °F 100% 29.93 in 5.0 mi West 6.9 mph - N/A   Overcast
1:55 PM 57.2 °F 56.7 °F 98% 29.93 in 5.0 mi West 8.1 mph - N/A   Overcast
2:15 PM 57.2 °F 56.7 °F 98% 29.94 in 5.0 mi West 8.1 mph - N/A   Overcast
2:35 PM 57.6 °F 56.7 °F 97% 29.94 in 5.0 mi West 6.9 mph - N/A   Overcast
2:55 PM 58.1 °F 56.7 °F 95% 29.93 in 5.0 mi West 9.2 mph - N/A   Overcast
3:15 PM 59.0 °F 56.8 °F 93% 29.93 in 7.0 mi WNW 9.2 mph - N/A   Overcast
3:35 PM 59.4 °F 56.3 °F 90% 29.93 in 7.0 mi West 6.9 mph - N/A   Overcast
3:55 PM 58.5 °F 56.3 °F 93% 29.92 in 7.0 mi West 10.4 mph - N/A   Overcast
4:15 PM 58.5 °F 56.1 °F 92% 29.92 in 7.0 mi West 8.1 mph - N/A   Overcast
4:35 PM 58.6 °F 56.3 °F 92% 29.92 in 7.0 mi West 9.2 mph - N/A   Overcast
4:55 PM 59.4 °F 55.8 °F 88% 29.92 in 7.0 mi West 9.2 mph - N/A   Overcast
5:15 PM 59.5 °F 54.9 °F 84% 29.92 in 10.0 mi West 9.2 mph - N/A   Overcast
5:35 PM 59.0 °F 55.4 °F 88% 29.92 in 7.0 mi West 9.2 mph - N/A   Overcast
5:55 PM 59.4 °F 55.4 °F 87% 29.91 in 7.0 mi West 10.4 mph - N/A   Overcast
6:15 PM 59.4 °F 55.2 °F 86% 29.92 in 7.0 mi West 9.2 mph - N/A   Overcast
6:35 PM 59.4 °F 54.9 °F 85% 29.91 in 10.0 mi West 6.9 mph - N/A   Overcast
6:55 PM 59.0 °F 54.5 °F 85% 29.92 in 10.0 mi West 6.9 mph - N/A   Mostly Cloudy
7:15 PM 58.5 °F 54.3 °F 86% 29.93 in 10.0 mi West 4.6 mph - N/A   Mostly Cloudy
7:35 PM 58.1 °F 53.8 °F 86% 29.93 in 10.0 mi West 8.1 mph - N/A   Overcast
7:55 PM 57.2 °F 53.6 °F 88% 29.93 in 10.0 mi WSW 5.8 mph - N/A   Overcast
8:15 PM 55.9 °F 53.4 °F 91% 29.93 in 10.0 mi SW 4.6 mph - N/A   Overcast
8:35 PM 55.8 °F 53.2 °F 91% 29.93 in 10.0 mi WSW 6.9 mph - N/A   Overcast
8:55 PM 55.6 °F 52.7 °F 90% 29.94 in 10.0 mi WSW 6.9 mph - N/A   Overcast
9:15 PM 55.6 °F 52.0 °F 88% 29.94 in 10.0 mi West 8.1 mph - N/A   Overcast
9:35 PM 54.9 °F 51.4 °F 88% 29.95 in 10.0 mi WSW 5.8 mph - N/A   Scattered Clouds
9:55 PM 53.2 °F 51.1 °F 92% 29.96 in 10.0 mi SW 5.8 mph - N/A   Clear
10:15 PM 53.2 °F 51.4 °F 94% 29.96 in 10.0 mi South 4.6 mph - N/A   Scattered Clouds
10:35 PM 52.5 °F 51.6 °F 97% 29.96 in 7.0 mi Calm Calm - N/A   Scattered Clouds
10:55 PM 52.2 °F 52.0 °F 99% 29.96 in 7.0 mi South 3.5 mph - N/A   Scattered Clouds
11:15 PM 51.4 °F 51.4 °F 100% 29.95 in 5.0 mi Calm Calm - N/A   Scattered Clouds
11:35 PM 50.9 °F 50.9 °F 100% 29.95 in 4.0 mi South 3.5 mph - N/A   Clear
11:55 PM 50.9 °F 50.9 °F 100% 29.95 in 4.0 mi Calm Calm - N/A   Clear